Temp
58 59 60 61 62 64 65 66 66 67 69 71 71 71 71 72 71 71 72 72 72 72 72 72 72 73 73 73 73 72 72 72 72 71 70 72 72 72 72 71 71 70 69 68 69 69 69 69 68 67 67 68 69 70 70 68 66 65 65 66 67 67 67 68 68 69 70 71 72
59 60 60 59 61 63 65 66 66 67 69 71 71 72 72 72 72 72 72 72 72 73 73 73 72 73 73 74 73 73 73 73 73 72 71 72 72 71 71 70 70 69 68 67 67 68 68 68 66 65 66 67 69 70 70 69 66 65 65 66 66 66 66 67 68 69 70 70 71
60 60 61 62 63 65 66 67 67 69 70 70 71 72 72 72 72 72 72 72 73 73 73 73 72 73 74 74 74 73 73 73 73 72 72 72 72 72 71 70 70 68 66 66 66 67 67 68 65 64 63 66 67 69 70 70 67 65 64 65 65 65 65 66 66 67 68 67 69
61 61 62 63 65 66 66 67 68 69 69 70 70 71 71 72 72 72 72 72 72 72 73 73 72 72 73 73 73 73 73 72 72 72 72 72 72 72 72 70 70 68 66 65 65 66 67 67 66 64 63 64 66 67 68 69 68 66 65 65 65 65 66 65 65 65 66 65 67
62 63 63 65 66 66 67 68 68 69 69 69 70 70 71 71 71 71 71 71 71 72 73 72 72 72 72 73 73 73 73 72 70 71 72 72 72 72 71 70 69 68 66 65 65 65 66 67 66 65 64 64 65 66 67 68 68 67 66 65 65 66 66 66 65 65 65 65 65
63 64 65 65 66 67 67 68 68 69 69 69 69 70 71 71 71 71 71 72 72 73 73 71 70 70 70 73 73 73 72 72 71 71 71 71 71 71 70 69 69 67 66 65 65 65 65 66 66 66 65 64 64 65 66 68 68 68 67 66 67 67 67 66 64 64 64 65 66
63 64 64 65 66 66 67 67 68 68 69 68 70 70 70 70 71 71 72 72 73 73 71 69 69 70 71 72 72 72 72 72 72 71 71 70 70 69 68 69 68 67 66 65 65 65 65 66 66 65 64 63 63 64 65 67 68 68 66 66 67 67 67 67 65 64 65 66 67
63 64 64 64 64 65 66 67 67 68 69 69 69 70 70 70 71 72 72 73 73 72 71 70 71 72 72 71 71 70 71 71 71 71 70 69 68 68 68 67 67 66 66 65 65 65 64 64 64 65 65 65 64 64 65 67 67 66 65 65 66 66 67 67 66 66 66 67 67
62 63 63 64 65 65 66 67 68 68 69 70 69 70 71 70 71 71 72 72 72 71 70 71 71 71 71 70 69 69 69 69 69 69 68 67 67 67 66 66 66 65 65 65 65 65 64 62 63 64 65 67 66 66 66 66 65 65 64 64 64 66 67 68 68 68 68 68 67
61 61 63 65 66 66 66 67 67 68 69 70 70 70 70 67 69 71 72 72 70 70 71 71 71 70 70 69 69 68 68 67 67 66 66 66 66 65 65 64 65 65 65 66 65 64 63 62 63 63 64 66 67 67 66 65 64 64 64 63 64 65 67 68 69 69 68 67 67
61 62 63 64 66 65 65 67 67 68 69 70 70 70 69 68 69 70 71 70 70 70 71 71 70 69 69 69 68 68 68 67 67 67 66 65 65 65 65 64 64 65 65 66 65 64 63 62 63 63 64 65 66 66 65 64 64 64 64 64 64 64 65 66 68 68 68 68 67
62 63 63 63 65 66 66 68 68 68 68 69 69 69 70 70 70 70 69 69 70 70 70 70 69 69 69 69 69 68 68 68 67 67 66 65 65 65 65 64 64 64 65 65 65 64 63 62 62 62 63 63 64 64 64 64 64 64 64 64 64 64 64 65 67 69 69 69 68
63 64 64 64 65 66 67 67 67 67 68 68 67 67 68 69 69 69 69 69 69 69 68 69 69 69 69 69 69 68 68 67 67 67 66 65 65 65 65 64 64 64 64 65 64 64 63 62 62 62 62 62 63 63 64 64 64 64 63 63 63 64 64 65 67 69 69 69 67
64 64 64 65 65 66 66 66 66 67 68 67 67 67 67 67 67 67 67 67 68 67 67 68 67 68 69 69 69 69 68 67 67 67 66 66 65 65 65 64 64 64 64 65 65 64 63 62 62 62 62 62 63 63 63 64 64 64 63 63 63 64 65 66 67 68 68 67 66
64 64 64 65 65 65 66 65 66 67 67 67 66 66 66 65 65 65 65 65 66 67 67 67 67 67 68 69 69 69 68 68 67 67 66 66 65 65 65 64 64 64 64 65 64 64 63 63 62 62 62 62 63 63 63 63 64 64 64 64 64 65 65 66 67 67 67 67 66
63 64 64 64 64 65 65 66 66 67 67 67 65 65 64 64 65 64 63 64 65 66 67 66 67 67 67 67 68 68 68 67 67 67 66 66 66 65 65 64 64 64 64 65 64 63 63 63 63 63 63 63 63 63 63 63 64 64 64 65 65 65 65 66 66 67 67 66 66
63 63 63 63 64 64 65 66 66 66 66 66 64 64 63 64 66 65 64 63 64 65 66 67 68 67 67 65 65 66 67 67 67 67 66 66 65 65 65 64 64 64 64 64 64 63 63 63 63 63 63 63 63 63 63 63 64 64 64 65 65 65 65 64 65 66 66 66 66
63 63 63 63 64 64 65 65 65 65 64 64 63 64 64 65 66 66 66 64 65 66 66 67 67 68 67 66 65 65 66 67 67 66 66 66 65 65 65 64 64 64 64 63 63 63 63 63 63 63 63 63 63 63 64 64 64 64 64 64 65 65 65 65 66 66 66 66 66
63 63 63 63 64 64 64 64 64 64 63 63 63 64 65 66 67 67 67 66 66 66 67 67 67 67 67 67 66 65 65 66 66 66 66 65 65 65 64 64 65 64 63 63 63 63 63 62 63 63 63 63 63 64 64 65 65 64 64 65 65 65 65 66 66 67 67 67 67
63 64 64 64 64 64 64 64 64 63 63 63 63 64 64 66 66 66 66 67 66 66 66 67 67 67 67 67 67 66 65 65 65 65 64 64 64 64 64 64 64 64 63 63 63 63 63 62 63 63 63 62 63 63 64 64 64 64 65 65 65 65 66 66 67 67 67 67 67
64 64 64 64 64 64 64 64 64 63 63 63 63 64 65 66 66 66 66 66 67 66 66 66 66 66 66 66 66 65 65 64 64 64 63 63 63 63 63 63 64 63 63 63 63 63 63 62 63 63 63 62 62 63 63 64 64 64 65 65 65 66 66 67 67 67 67 67 67
63 63 64 64 64 64 63 63 63 63 63 63 64 65 65 65 65 65 66 66 65 65 65 65 65 65 64 65 65 65 64 63 63 63 62 62 62 62 62 63 63 63 63 62 63 63 63 62 63 63 63 62 63 63 63 63 63 64 65 65 66 66 66 67 67 67 67 67 67
63 63 63 63 63 61 60 61 61 62 63 64 64 65 65 65 65 65 65 64 63 63 63 64 64 64 64 64 64 64 63 62 62 62 62 62 62 62 62 62 63 63 63 62 63 63 63 63 63 63 63 63 63 63 63 64 64 64 65 65 66 66 66 66 67 67 67 67 67
61 61 61 61 61 61 60 60 61 62 63 63 63 63 63 63 63 63 63 63 62 62 62 62 63 63 64 64 64 63 63 62 61 61 61 61 61 62 62 62 62 63 63 62 61 61 61 61 62 63 63 63 63 63 64 64 65 65 65 65 65 65 66 66 66 66 66 67 67
59 59 59 60 60 60 60 60 60 60 60 60 60 60 60 60 61 61 61 61 62 62 62 62 62 63 63 63 63 62 62 61 61 60 60 60 61 61 61 61 62 62 62 60 55 53 54 56 59 61 63 63 64 64 64 65 65 66 65 65 65 65 65 65 65 66 66 66 66
57 57 58 58 58 58 58 57 57 57 57 57 57 57 58 59 60 60 61 61 61 61 62 62 62 61 61 62 62 62 61 61 60 60 60 60 61 61 62 62 62 62 61 55 50 48 49 50 52 56 60 65 64 64 64 65 65 65 65 65 65 65 65 64 65 65 66 66 66
55 55 55 56 56 56 55 56 55 55 55 55 55 56 57 59 60 60 61 60 60 61 61 60 61 59 58 61 61 61 60 60 60 60 60 60 60 61 61 61 61 60 57 50 47 46 47 48 48 52 57 65 65 65 65 65 66 66 66 65 65 65 65 65 66 66 66 66 66
52 53 54 54 54 54 54 54 53 53 52 53 54 55 57 58 58 58 58 58 58 58 58 58 58 57 56 57 57 57 56 56 56 57 57 57 57 58 58 58 57 54 51 47 46 46 46 46 47 48 52 59 65 66 66 65 65 66 65 64 65 65 65 65 65 65 66 66 66
50 51 52 52 52 52 52 51 51 51 51 51 52 54 55 55 55 55 55 55 55 55 54 54 53 53 53 53 53 53 53 53 53 54 54 54 54 54 54 55 53 50 47 45 46 46 46 46 46 46 48 52 61 64 64 63 62 62 62 62 63 64 65 65 65 65 66 65 65
49 49 50 50 50 50 49 49 49 49 49 50 51 52 52 53 52 52 52 52 52 52 52 52 52 51 51 51 51 51 51 51 52 52 51 51 51 51 51 51 51 49 46 43 44 45 45 45 45 45 46 48 55 59 60 59 59 58 57 57 59 61 62 63 63 64 64 64 64
47 47 48 48 48 48 48 48 48 48 48 48 49 50 50 50 50 50 50 50 50 49 49 50 49 49 49 49 50 50 50 50 49 49 49 48 47 47 47 47 47 45 44 42 43 44 44 44 44 44 45 46 51 55 57 56 56 55 54 53 54 56 57 57 57 58 59 60 62
45 46 46 46 46 46 46 46 46 46 46 47 47 48 48 48 48 49 49 49 49 48 48 48 48 48 48 48 48 48 48 48 48 47 47 46 45 45 44 44 43 43 42 42 42 43 43 43 43 43 43 44 48 51 53 53 52 51 50 49 50 50 51 52 53 53 54 55 57
44 44 44 45 45 45 45 45 45 45 45 45 45 45 46 46 47 47 47 47 47 47 46 46 46 46 46 46 46 47 47 46 46 45 45 45 44 43 43 42 42 41 40 41 41 41 42 42 42 42 42 43 47 50 51 50 49 48 48 47 47 47 48 48 48 49 50 51 53
43 43 43 43 43 43 44 44 44 44 44 44 43 44 44 44 44 44 45 45 45 45 45 45 45 45 45 45 45 45 45 45 45 45 45 44 44 43 42 41 41 40 39 40 40 41 41 41 41 42 42 43 46 49 49 48 46 46 45 45 44 44 44 44 45 46 47 48 49
42 42 42 42 42 42 43 43 43 43 43 42 42 42 43 43 43 43 43 43 43 43 44 43 43 43 44 44 44 44 44 44 44 44 44 44 43 42 41 41 40 39 39 39 40 40 41 41 41 42 43 43 46 48 48 47 45 44 43 42 42 41 41 41 42 42 43 45 46
41 41 41 41 41 41 41 41 41 41 41 41 41 41 42 42 42 43 43 42 43 43 42 42 42 42 42 42 43 43 43 43 43 43 43 43 43 42 42 41 40 39 38 39 39 40 40 41 41 42 43 46 47 47 47 46 44 43 42 41 40 40 39 39 39 39 40 41 42
40 40 40 40 40 40 40 40 40 40 39 39 40 40 41 41 41 42 42 42 42 41 41 41 40 40 40 40 41 41 42 42 42 42 42 42 43 43 42 41 40 39 38 38 39 39 40 40 41 42 44 47 47 47 46 45 43 42 42 41 40 39 39 38 38 38 37 37 38
39 39 39 39 39 39 39 39 39 39 38 39 39 39 40 40 40 40 40 40 40 40 39 39 39 39 39 39 39 40 40 41 41 41 41 41 42 42 41 40 39 38 38 38 38 39 39 40 41 42 44 47 47 47 45 44 43 42 41 41 40 40 39 39 39 38 37 36 36
38 38 38 38 38 38 38 38 38 38 38 38 38 39 39 39 39 39 39 39 39 39 38 38 38 38 38 38 38 38 39 39 39 39 39 39 39 40 40 39 38 38 37 37 38 38 39 40 40 41 43 45 47 47 46 45 43 42 41 41 40 40 40 39 39 38 37 36 37
37 38 38 38 38 37 37 37 37 37 38 38 38 38 38 38 38 38 39 38 38 38 38 37 37 37 38 38 37 37 37 38 38 38 38 38 38 38 38 38 38 37 37 37 37 38 39 39 40 41 43 46 47 47 47 45 44 42 41 41 41 40 40 40 39 39 38 38 37
37 37 37 37 37 37 37 36 37 37 37 37 37 37 37 37 38 38 38 38 37 37 37 37 37 37 37 37 36 36 36 36 36 36 37 37 37 37 37 37 37 37 37 37 37 38 38 39 40 41 42 46 48 48 48 47 45 43 42 42 41 41 40 40 40 39 39 38 38
MSLP
996.52 996.40 996.28 996.16 995.96 995.80 995.68 995.60 995.60 995.64 995.64 995.68 995.80 995.88 995.96 996.08 996.20 996.32 996.44 996.52 996.64 996.72 996.92 997.08 997.28 997.44 997.56 997.76 997.96 998.16 998.36 998.52 998.72 998.96 999.16 999.32 999.48 999.68 999.96 1000.20 1000.52 1000.80 1001.08 1001.32 1001.52 1001.76 1001.88 1002.00 1002.12 1002.24 1002.40 1002.52 1002.52 1002.52 1002.60 1002.80 1003.08 1003.44 1003.72 1003.84 1003.88 1003.92 1003.96 1003.92 1004.00 1004.12 1004.24 1004.40 1004.60
995.80 995.80 995.80 995.68 995.56 995.48 995.40 995.36 995.36 995.44 995.56 995.68 995.72 995.80 995.84 995.96 996.08 996.20 996.28 996.36 996.44 996.52 996.68 996.84 997.08 997.24 997.32 997.48 997.68 997.84 998.08 998.24 998.44 998.68 998.96 999.20 999.36 999.56 999.84 1000.08 1000.40 1000.72 1001.04 1001.28 1001.52 1001.68 1001.72 1001.88 1002.08 1002.24 1002.36 1002.44 1002.44 1002.44 1002.44 1002.56 1002.92 1003.24 1003.44 1003.52 1003.64 1003.76 1003.84 1003.92 1004.00 1004.12 1004.28 1004.52 1004.68
995.24 995.32 995.32 995.24 995.20 995.12 995.08 995.08 995.16 995.36 995.60 995.72 995.72 995.72 995.76 995.84 995.96 996.04 996.16 996.24 996.28 996.40 996.52 996.68 996.84 996.96 997.08 997.24 997.40 997.60 997.80 998.00 998.24 998.52 998.80 999.04 999.24 999.44 999.72 999.96 1000.28 1000.64 1000.96 1001.24 1001.44 1001.52 1001.60 1001.76 1002.00 1002.24 1002.32 1002.36 1002.36 1002.32 1002.28 1002.40 1002.72 1003.04 1003.24 1003.36 1003.52 1003.68 1003.84 1003.96 1004.08 1004.24 1004.40 1004.64 1004.72
994.84 994.92 994.92 994.80 994.76 994.68 994.76 994.96 995.24 995.52 995.68 995.72 995.72 995.72 995.76 995.80 995.84 995.96 996.00 996.08 996.20 996.32 996.40 996.48 996.64 996.76 996.88 997.04 997.24 997.44 997.68 997.88 998.08 998.36 998.56 998.80 999.04 999.28 999.52 999.84 1000.12 1000.52 1000.84 1001.16 1001.32 1001.40 1001.48 1001.64 1001.84 1002.04 1002.20 1002.24 1002.24 1002.20 1002.20 1002.24 1002.52 1002.88 1003.12 1003.24 1003.36 1003.52 1003.68 1003.84 1004.04 1004.24 1004.40 1004.68 1004.76
994.52 994.52 994.52 994.48 994.48 994.68 994.96 995.24 995.44 995.60 995.68 995.68 995.68 995.68 995.68 995.72 995.80 995.84 995.92 996.00 996.12 996.20 996.24 996.32 996.44 996.56 996.72 996.88 997.12 997.36 997.52 997.72 998.00 998.24 998.40 998.68 998.88 999.08 999.36 999.68 1000.00 1000.36 1000.68 1000.96 1001.16 1001.24 1001.32 1001.44 1001.64 1001.80 1001.96 1002.08 1002.08 1002.08 1002.08 1002.12 1002.36 1002.68 1003.00 1003.12 1003.32 1003.40 1003.52 1003.64 1003.88 1004.20 1004.52 1004.80 1005.04
994.24 994.28 994.32 994.40 994.68 994.92 995.16 995.36 995.48 995.52 995.52 995.52 995.52 995.52 995.52 995.56 995.64 995.68 995.72 995.80 995.88 995.96 996.08 996.24 996.40 996.52 996.68 996.80 997.04 997.24 997.48 997.68 997.88 998.08 998.28 998.52 998.76 998.96 999.24 999.52 999.84 1000.16 1000.52 1000.76 1000.96 1001.08 1001.16 1001.24 1001.36 1001.52 1001.64 1001.80 1001.96 1002.00 1002.00 1002.04 1002.24 1002.52 1002.80 1002.96 1003.20 1003.20 1003.16 1003.40 1003.92 1004.28 1004.56 1004.80 1005.12
994.24 994.32 994.48 994.68 994.84 995.04 995.20 995.36 995.44 995.40 995.40 995.44 995.40 995.36 995.32 995.36 995.40 995.44 995.52 995.60 995.72 995.80 995.96 996.20 996.36 996.48 996.60 996.72 996.92 997.12 997.36 997.56 997.76 997.96 998.20 998.44 998.68 998.96 999.20 999.40 999.68 1000.00 1000.32 1000.52 1000.68 1000.84 1000.96 1001.00 1001.12 1001.24 1001.36 1001.56 1001.72 1001.84 1001.96 1001.96 1002.12 1002.40 1002.68 1002.84 1002.96 1002.96 1003.08 1003.36 1003.88 1004.24 1004.48 1004.68 1004.96
994.24 994.40 994.56 994.76 994.88 994.96 995.08 995.24 995.28 995.24 995.24 995.24 995.20 995.16 995.12 995.16 995.24 995.28 995.36 995.44 995.52 995.68 995.88 996.08 996.24 996.40 996.52 996.68 996.80 997.04 997.24 997.44 997.68 997.84 998.08 998.40 998.64 998.84 999.08 999.36 999.60 999.88 1000.08 1000.28 1000.40 1000.52 1000.68 1000.84 1000.96 1001.04 1001.16 1001.36 1001.52 1001.68 1001.80 1001.84 1002.04 1002.36 1002.60 1002.76 1002.80 1002.88 1003.00 1003.28 1003.68 1004.04 1004.28 1004.44 1004.68
994.40 994.56 994.68 994.76 994.88 994.96 995.00 995.08 995.08 995.04 995.00 995.00 995.04 995.00 994.96 995.04 995.08 995.20 995.24 995.36 995.40 995.56 995.80 996.08 996.24 996.40 996.52 996.64 996.80 997.00 997.24 997.40 997.60 997.80 998.08 998.32 998.60 998.80 999.08 999.32 999.52 999.68 999.84 1000.00 1000.08 1000.24 1000.44 1000.68 1000.80 1000.84 1000.96 1001.08 1001.24 1001.40 1001.52 1001.68 1001.96 1002.24 1002.48 1002.68 1002.80 1002.88 1002.96 1003.20 1003.48 1003.80 1004.08 1004.24 1004.44
994.52 994.68 994.68 994.64 994.76 994.88 994.96 994.96 994.96 994.88 994.84 994.80 994.84 994.88 994.96 995.08 995.12 995.20 995.24 995.36 995.44 995.60 995.80 996.04 996.24 996.40 996.52 996.68 996.80 997.00 997.20 997.40 997.60 997.80 998.08 998.28 998.56 998.80 999.00 999.24 999.36 999.52 999.60 999.72 999.84 1000.04 1000.24 1000.44 1000.52 1000.68 1000.80 1000.88 1001.00 1001.12 1001.32 1001.56 1001.84 1002.08 1002.36 1002.60 1002.84 1003.04 1003.16 1003.32 1003.52 1003.72 1003.96 1004.08 1004.20
994.52 994.60 994.56 994.52 994.64 994.80 994.88 994.80 994.80 994.80 994.76 994.72 994.80 994.88 994.96 995.12 995.24 995.24 995.32 995.40 995.52 995.68 995.80 995.96 996.24 996.40 996.52 996.64 996.76 996.96 997.12 997.36 997.56 997.80 998.08 998.28 998.52 998.72 998.88 999.04 999.16 999.24 999.36 999.48 999.64 999.80 1000.00 1000.20 1000.36 1000.48 1000.60 1000.72 1000.80 1000.96 1001.16 1001.44 1001.68 1001.96 1002.24 1002.56 1002.92 1003.08 1003.24 1003.36 1003.52 1003.68 1003.80 1003.96 1004.04
994.40 994.44 994.52 994.56 994.60 994.68 994.68 994.60 994.64 994.68 994.72 994.68 994.80 994.88 995.00 995.12 995.20 995.28 995.36 995.52 995.60 995.72 995.80 995.96 996.12 996.32 996.44 996.52 996.68 996.80 997.04 997.28 997.48 997.72 998.00 998.24 998.40 998.56 998.68 998.84 998.96 999.04 999.16 999.24 999.40 999.60 999.80 1000.00 1000.16 1000.24 1000.40 1000.52 1000.64 1000.76 1000.96 1001.28 1001.56 1001.88 1002.24 1002.56 1002.84 1003.04 1003.12 1003.24 1003.28 1003.36 1003.52 1003.72 1003.96
994.28 994.36 994.48 994.52 994.56 994.52 994.52 994.60 994.60 994.64 994.68 994.76 994.88 994.96 995.08 995.12 995.20 995.28 995.44 995.56 995.64 995.72 995.84 995.92 996.08 996.24 996.36 996.40 996.52 996.68 996.92 997.20 997.40 997.64 997.84 998.04 998.24 998.36 998.52 998.68 998.76 998.88 998.96 999.08 999.24 999.40 999.68 999.84 999.96 1000.04 1000.16 1000.32 1000.44 1000.56 1000.76 1001.08 1001.36 1001.80 1002.16 1002.48 1002.68 1002.80 1002.88 1002.96 1002.96 1003.04 1003.24 1003.52 1003.80
994.28 994.28 994.40 994.44 994.52 994.48 994.52 994.68 994.68 994.68 994.68 994.80 994.92 995.08 995.20 995.24 995.28 995.40 995.52 995.64 995.68 995.76 995.84 995.92 996.00 996.08 996.20 996.28 996.40 996.56 996.80 997.08 997.32 997.52 997.68 997.80 997.96 998.16 998.32 998.44 998.56 998.68 998.80 998.96 999.04 999.24 999.52 999.76 999.80 999.80 999.92 1000.08 1000.24 1000.40 1000.64 1000.92 1001.24 1001.68 1002.04 1002.28 1002.48 1002.56 1002.60 1002.68 1002.68 1002.84 1003.08 1003.44 1003.72
994.24 994.32 994.40 994.48 994.52 994.56 994.60 994.64 994.68 994.68 994.72 994.80 994.96 995.16 995.32 995.44 995.52 995.64 995.72 995.76 995.80 995.84 995.92 995.96 996.04 996.12 996.20 996.24 996.28 996.44 996.68 996.96 997.12 997.32 997.48 997.60 997.80 997.96 998.12 998.24 998.40 998.52 998.68 998.80 998.96 999.20 999.48 999.68 999.68 999.72 999.80 999.96 1000.04 1000.28 1000.56 1000.92 1001.24 1001.56 1001.88 1002.08 1002.20 1002.24 1002.32 1002.40 1002.52 1002.76 1003.04 1003.36 1003.68
994.36 994.40 994.52 994.52 994.60 994.64 994.60 994.60 994.64 994.68 994.72 994.80 995.04 995.24 995.44 995.56 995.56 995.68 995.80 995.92 995.96 995.96 995.92 995.96 995.96 996.08 996.24 996.32 996.36 996.40 996.56 996.80 996.96 997.08 997.28 997.44 997.60 997.76 997.96 998.12 998.24 998.40 998.56 998.68 998.88 999.20 999.48 999.68 999.68 999.68 999.76 999.88 1000.00 1000.28 1000.64 1000.96 1001.24 1001.52 1001.68 1001.80 1001.92 1002.00 1002.12 1002.32 1002.52 1002.72 1002.96 1003.24 1003.52
994.40 994.40 994.48 994.52 994.52 994.56 994.56 994.52 994.56 994.68 994.76 994.88 995.08 995.24 995.44 995.52 995.40 995.40 995.64 995.88 995.96 995.88 995.80 995.84 995.84 995.96 996.24 996.48 996.56 996.56 996.56 996.64 996.76 996.96 997.08 997.24 997.40 997.60 997.80 997.96 998.08 998.28 998.48 998.64 998.84 999.20 999.48 999.64 999.64 999.64 999.76 999.96 1000.08 1000.32 1000.68 1001.00 1001.24 1001.40 1001.52 1001.68 1001.80 1002.00 1002.20 1002.40 1002.60 1002.80 1002.96 1003.20 1003.48
994.48 994.40 994.40 994.48 994.44 994.44 994.48 994.52 994.56 994.72 994.84 994.96 995.08 995.24 995.32 995.36 995.24 995.20 995.32 995.60 995.72 995.68 995.68 995.76 995.80 995.92 996.08 996.40 996.52 996.60 996.52 996.52 996.60 996.76 996.96 997.12 997.28 997.48 997.68 997.80 997.96 998.20 998.40 998.60 998.80 999.16 999.48 999.60 999.56 999.64 999.80 1000.04 1000.20 1000.40 1000.64 1000.92 1001.16 1001.32 1001.52 1001.76 1001.96 1002.16 1002.40 1002.64 1002.76 1002.84 1002.96 1003.20 1003.36
994.56 994.52 994.52 994.52 994.48 994.44 994.48 994.52 994.68 994.80 994.96 995.08 995.08 995.16 995.20 995.20 995.12 995.08 995.16 995.32 995.52 995.60 995.64 995.68 995.80 995.84 995.96 996.12 996.24 996.36 996.40 996.36 996.48 996.64 996.80 997.04 997.20 997.36 997.52 997.72 997.84 998.08 998.40 998.64 998.84 999.20 999.48 999.64 999.60 999.72 999.96 1000.12 1000.28 1000.44 1000.60 1000.80 1001.04 1001.28 1001.56 1001.88 1002.08 1002.28 1002.48 1002.68 1002.72 1002.80 1002.92 1003.08 1003.28
994.68 994.56 994.52 994.52 994.52 994.52 994.52 994.60 994.72 994.88 995.00 995.08 995.04 995.08 995.16 995.12 995.08 995.08 995.16 995.24 995.40 995.56 995.64 995.68 995.76 995.80 995.88 995.96 996.08 996.20 996.24 996.32 996.44 996.60 996.80 997.00 997.16 997.32 997.48 997.64 997.80 998.08 998.40 998.68 998.92 999.24 999.48 999.64 999.68 999.80 1000.04 1000.24 1000.40 1000.52 1000.68 1000.84 1001.04 1001.28 1001.56 1001.80 1002.00 1002.16 1002.32 1002.52 1002.64 1002.76 1002.92 1003.08 1003.28
994.68 994.60 994.52 994.52 994.52 994.52 994.60 994.68 994.80 994.92 995.00 995.08 995.08 995.04 995.00 995.00 995.04 995.08 995.16 995.24 995.36 995.52 995.68 995.72 995.80 995.80 995.88 995.92 996.04 996.16 996.24 996.36 996.48 996.64 996.80 996.96 997.12 997.28 997.40 997.60 997.84 998.16 998.44 998.68 998.96 999.20 999.44 999.64 999.72 999.88 1000.08 1000.40 1000.52 1000.68 1000.80 1000.96 1001.16 1001.36 1001.52 1001.64 1001.80 1002.00 1002.20 1002.40 1002.52 1002.72 1002.92 1003.12 1003.36
994.76 994.68 994.60 994.56 994.56 994.64 994.76 994.84 994.96 995.00 994.96 994.96 994.96 994.96 994.92 994.96 994.96 995.04 995.12 995.24 995.44 995.60 995.68 995.76 995.80 995.80 995.88 995.96 996.04 996.12 996.24 996.36 996.52 996.68 996.80 996.96 997.08 997.24 997.40 997.64 997.88 998.12 998.40 998.68 998.96 999.24 999.52 999.64 999.80 999.92 1000.12 1000.44 1000.60 1000.72 1000.84 1001.04 1001.20 1001.36 1001.44 1001.52 1001.68 1001.92 1002.12 1002.36 1002.52 1002.68 1002.92 1003.16 1003.40
994.80 994.80 994.72 994.68 994.72 994.84 994.96 995.04 995.08 995.04 994.96 994.88 994.84 994.84 994.84 994.84 994.92 995.00 995.12 995.28 995.48 995.60 995.68 995.68 995.68 995.76 995.80 995.92 995.96 996.08 996.20 996.40 996.52 996.68 996.76 996.84 996.96 997.12 997.36 997.68 997.88 998.08 998.32 998.64 998.96 999.28 999.52 999.68 999.76 999.92 1000.08 1000.40 1000.56 1000.72 1000.84 1000.96 1001.08 1001.24 1001.32 1001.44 1001.64 1001.84 1002.08 1002.32 1002.52 1002.72 1002.96 1003.24 1003.48
994.88 994.88 994.84 994.80 994.92 995.00 995.08 995.12 995.08 995.00 994.96 994.88 994.88 994.92 994.92 994.88 994.92 995.00 995.08 995.24 995.36 995.44 995.52 995.52 995.56 995.64 995.72 995.84 995.92 996.00 996.20 996.40 996.52 996.64 996.72 996.80 996.92 997.08 997.36 997.68 997.92 998.08 998.24 998.56 998.96 999.36 999.56 999.68 999.80 999.96 1000.12 1000.32 1000.52 1000.72 1000.84 1000.88 1000.96 1001.08 1001.24 1001.40 1001.64 1001.88 1002.12 1002.40 1002.56 1002.80 1003.00 1003.24 1003.52
995.04 995.04 995.04 995.04 995.08 995.12 995.16 995.24 995.24 995.20 995.12 995.08 995.04 995.00 994.96 994.88 994.92 994.96 995.00 995.08 995.16 995.24 995.28 995.28 995.36 995.48 995.68 995.80 995.96 996.04 996.20 996.36 996.52 996.64 996.76 996.88 997.00 997.16 997.40 997.72 997.96 998.08 998.24 998.68 999.16 999.52 999.68 999.76 999.92 1000.08 1000.24 1000.32 1000.44 1000.68 1000.88 1000.92 1000.96 1001.08 1001.28 1001.52 1001.72 1001.96 1002.24 1002.48 1002.68 1002.88 1003.08 1003.36 1003.56
995.32 995.28 995.28 995.24 995.32 995.36 995.36 995.36 995.36 995.36 995.24 995.20 995.08 994.96 994.80 994.72 994.68 994.68 994.68 994.72 994.80 994.92 995.00 995.08 995.24 995.44 995.64 995.80 995.96 996.08 996.24 996.44 996.60 996.72 996.80 996.88 997.00 997.20 997.44 997.72 998.00 998.20 998.40 998.88 999.36 999.68 999.84 999.96 1000.08 1000.24 1000.36 1000.36 1000.48 1000.68 1000.88 1000.96 1001.04 1001.24 1001.44 1001.68 1001.88 1002.12 1002.36 1002.60 1002.80 1003.00 1003.24 1003.44 1003.68
995.68 995.64 995.60 995.56 995.60 995.64 995.60 995.56 995.52 995.52 995.44 995.28 995.12 994.84 994.56 994.36 994.24 994.24 994.28 994.40 994.52 994.68 994.88 995.08 995.28 995.52 995.76 995.92 996.08 996.24 996.44 996.64 996.80 996.84 996.92 996.96 997.08 997.28 997.56 997.84 998.08 998.40 998.72 999.20 999.52 999.72 999.92 1000.08 1000.16 1000.28 1000.32 1000.28 1000.48 1000.68 1000.84 1001.00 1001.20 1001.40 1001.64 1001.88 1002.08 1002.24 1002.48 1002.68 1002.92 1003.12 1003.32 1003.52 1003.76
996.04 995.96 995.92 995.92 995.88 995.84 995.80 995.76 995.72 995.68 995.64 995.40 995.12 994.72 994.36 994.08 994.08 994.16 994.32 994.48 994.64 994.84 995.12 995.44 995.68 995.96 996.12 996.28 996.52 996.80 997.00 997.16 997.24 997.24 997.24 997.32 997.48 997.68 997.96 998.20 998.44 998.76 999.08 999.36 999.64 999.80 1000.00 1000.08 1000.24 1000.40 1000.40 1000.40 1000.48 1000.68 1000.92 1001.12 1001.36 1001.56 1001.80 1002.08 1002.28 1002.48 1002.68 1002.88 1003.08 1003.28 1003.48 1003.64 1003.84
996.52 996.40 996.28 996.24 996.20 996.12 996.08 996.00 996.00 995.96 995.84 995.60 995.24 994.88 994.56 994.40 994.40 994.52 994.68 994.80 995.04 995.28 995.60 995.84 996.08 996.32 996.56 996.80 997.12 997.36 997.44 997.44 997.48 997.52 997.64 997.80 998.00 998.24 998.52 998.72 998.96 999.24 999.48 999.64 999.80 999.96 1000.08 1000.16 1000.32 1000.44 1000.52 1000.56 1000.60 1000.84 1001.20 1001.48 1001.72 1001.96 1002.24 1002.40 1002.56 1002.72 1002.88 1003.08 1003.24 1003.44 1003.60 1003.80 1004.00
997.00 996.88 996.72 996.64 996.48 996.36 996.32 996.36 996.36 996.28 996.12 995.92 995.64 995.36 995.08 994.88 994.84 994.96 995.12 995.28 995.52 995.80 996.08 996.24 996.32 996.60 996.96 997.32 997.52 997.64 997.72 997.80 997.92 998.08 998.20 998.40 998.64 998.96 999.24 999.44 999.64 999.80 999.92 999.96 1000.04 1000.12 1000.24 1000.40 1000.56 1000.72 1000.88 1001.08 1001.24 1001.48 1001.80 1002.08 1002.32 1002.56 1002.80 1003.00 1003.08 1003.12 1003.24 1003.36 1003.52 1003.68 1003.88 1004.04 1004.16
997.36 997.24 997.08 996.84 996.64 996.56 996.60 996.68 996.72 996.68 996.56 996.40 996.16 995.84 995.56 995.40 995.44 995.56 995.72 995.88 996.16 996.40 996.52 996.52 996.72 997.12 997.56 997.80 997.88 997.96 998.12 998.32 998.52 998.68 998.80 999.04 999.36 999.68 999.96 1000.20 1000.44 1000.52 1000.48 1000.32 1000.32 1000.44 1000.60 1000.80 1000.96 1001.16 1001.36 1001.56 1001.72 1001.96 1002.24 1002.52 1002.80 1003.08 1003.36 1003.52 1003.68 1003.72 1003.80 1003.96 1004.12 1004.28 1004.40 1004.36 1004.40
997.52 997.36 997.24 997.08 996.96 996.96 997.08 997.16 997.24 997.28 997.20 997.00 996.76 996.40 996.08 995.96 996.04 996.12 996.24 996.40 996.52 996.68 996.84 997.04 997.40 997.80 998.08 998.20 998.28 998.44 998.64 998.80 999.00 999.20 999.36 999.68 999.96 1000.28 1000.60 1000.88 1001.12 1001.24 1001.08 1000.76 1000.68 1000.80 1001.04 1001.24 1001.40 1001.64 1001.84 1002.08 1002.28 1002.56 1002.80 1003.08 1003.32 1003.60 1003.84 1004.04 1004.20 1004.32 1004.44 1004.60 1004.76 1004.88 1004.92 1004.88 1004.88
997.96 997.80 997.68 997.52 997.48 997.52 997.68 997.80 997.92 997.92 997.80 997.52 997.24 996.88 996.64 996.52 996.60 996.68 996.80 996.88 997.04 997.24 997.52 997.80 998.16 998.40 998.56 998.68 998.80 998.96 999.08 999.24 999.44 999.68 999.96 1000.24 1000.44 1000.72 1001.08 1001.44 1001.68 1001.84 1001.76 1001.40 1001.24 1001.28 1001.44 1001.64 1001.80 1002.00 1002.24 1002.44 1002.68 1002.96 1003.24 1003.52 1003.80 1004.08 1004.32 1004.52 1004.72 1004.88 1005.04 1005.24 1005.36 1005.40 1005.40 1005.44 1005.40
998.56 998.44 998.28 998.20 998.12 998.24 998.36 998.48 998.48 998.36 998.16 997.88 997.60 997.32 997.16 997.08 997.16 997.24 997.32 997.48 997.64 997.88 998.24 998.52 998.76 998.92 999.04 999.12 999.24 999.36 999.52 999.68 999.88 1000.12 1000.40 1000.60 1000.80 1001.04 1001.40 1001.92 1002.28 1002.48 1002.36 1002.08 1001.84 1001.80 1001.84 1001.96 1002.12 1002.28 1002.52 1002.76 1003.04 1003.36 1003.64 1003.92 1004.20 1004.52 1004.76 1005.04 1005.28 1005.52 1005.68 1005.80 1005.88 1005.92 1005.92 1005.88 1005.84
999.24 999.08 999.00 998.92 998.84 998.92 998.96 998.96 998.80 998.60 998.32 998.08 997.84 997.68 997.60 997.56 997.68 997.76 997.88 997.96 998.12 998.40 998.80 999.08 999.24 999.36 999.52 999.68 999.76 999.84 999.96 1000.08 1000.32 1000.56 1000.80 1000.96 1001.08 1001.40 1001.88 1002.40 1002.80 1002.92 1002.80 1002.52 1002.40 1002.36 1002.32 1002.36 1002.44 1002.52 1002.76 1003.04 1003.36 1003.72 1004.00 1004.24 1004.60 1004.96 1005.24 1005.52 1005.80 1006.00 1006.16 1006.24 1006.40 1006.44 1006.44 1006.40 1006.36
999.80 999.72 999.64 999.56 999.48 999.40 999.32 999.16 998.92 998.68 998.48 998.32 998.24 998.20 998.16 998.16 998.24 998.40 998.40 998.48 998.68 999.00 999.36 999.60 999.68 999.76 999.92 1000.12 1000.32 1000.40 1000.44 1000.52 1000.68 1000.96 1001.20 1001.32 1001.52 1001.88 1002.32 1002.76 1003.04 1003.12 1003.08 1002.92 1002.84 1002.80 1002.80 1002.80 1002.80 1002.84 1003.00 1003.32 1003.72 1004.08 1004.40 1004.68 1005.08 1005.40 1005.68 1005.92 1006.20 1006.44 1006.64 1006.76 1006.92 1007.00 1007.00 1006.96 1006.88
1000.40 1000.32 1000.20 1000.08 999.92 999.76 999.60 999.36 999.16 999.00 998.92 998.84 998.80 998.80 998.80 998.80 998.92 999.00 999.04 999.08 999.28 999.64 999.92 1000.08 1000.20 1000.36 1000.52 1000.68 1000.84 1001.00 1001.08 1001.08 1001.20 1001.44 1001.72 1001.92 1002.08 1002.36 1002.68 1002.96 1003.24 1003.36 1003.36 1003.32 1003.24 1003.24 1003.24 1003.24 1003.24 1003.24 1003.36 1003.68 1004.08 1004.40 1004.72 1005.08 1005.44 1005.76 1006.00 1006.24 1006.52 1006.80 1006.96 1007.12 1007.28 1007.40 1007.48 1007.44 1007.40
1000.96 1000.88 1000.72 1000.52 1000.36 1000.20 1000.00 999.80 999.68 999.60 999.60 999.60 999.56 999.52 999.48 999.48 999.60 999.76 999.80 999.80 999.96 1000.24 1000.48 1000.68 1000.88 1001.08 1001.24 1001.36 1001.48 1001.64 1001.76 1001.80 1001.92 1002.08 1002.40 1002.64 1002.76 1002.80 1002.96 1003.24 1003.52 1003.76 1003.84 1003.80 1003.80 1003.76 1003.76 1003.76 1003.68 1003.68 1003.76 1004.00 1004.36 1004.68 1005.04 1005.36 1005.72 1006.00 1006.24 1006.52 1006.80 1007.04 1007.24 1007.40 1007.60 1007.72 1007.84 1007.92 1007.88
1001.60 1001.44 1001.24 1001.04 1000.84 1000.68 1000.52 1000.40 1000.32 1000.36 1000.36 1000.32 1000.24 1000.20 1000.16 1000.20 1000.36 1000.52 1000.56 1000.52 1000.60 1000.80 1001.04 1001.28 1001.56 1001.80 1001.92 1001.92 1001.96 1002.16 1002.40 1002.56 1002.68 1002.80 1002.96 1003.20 1003.32 1003.32 1003.36 1003.60 1003.96 1004.24 1004.40 1004.36 1004.28 1004.24 1004.24 1004.20 1004.20 1004.20 1004.24 1004.40 1004.64 1004.92 1005.24 1005.60 1005.92 1006.24 1006.52 1006.80 1007.04 1007.28 1007.52 1007.68 1007.84 1008.00 1008.16 1008.24 1008.24
1002.12 1001.96 1001.76 1001.52 1001.36 1001.24 1001.08 1000.96 1001.00 1001.00 1000.96 1000.88 1000.80 1000.80 1000.88 1000.96 1001.08 1001.16 1001.16 1001.20 1001.28 1001.44 1001.68 1001.96 1002.24 1002.40 1002.48 1002.40 1002.44 1002.68 1002.96 1003.20 1003.36 1003.44 1003.52 1003.64 1003.72 1003.76 1003.80 1004.04 1004.40 1004.68 1004.80 1004.80 1004.80 1004.72 1004.68 1004.68 1004.64 1004.60 1004.60 1004.68 1004.88 1005.12 1005.40 1005.72 1006.08 1006.40 1006.68 1006.96 1007.20 1007.48 1007.72 1007.96 1008.08 1008.28 1008.40 1008.52 1008.64
1002.60 1002.40 1002.24 1002.04 1001.88 1001.72 1001.60 1001.52 1001.56 1001.56 1001.48 1001.36 1001.36 1001.48 1001.56 1001.60 1001.68 1001.68 1001.76 1001.84 1001.96 1002.12 1002.40 1002.64 1002.80 1002.96 1002.96 1002.96 1003.08 1003.24 1003.48 1003.72 1003.92 1003.96 1003.96 1004.00 1004.12 1004.24 1004.40 1004.60 1004.84 1005.08 1005.24 1005.28 1005.24 1005.20 1005.12 1005.08 1005.04 1004.96 1004.96 1004.96 1005.08 1005.32 1005.56 1005.84 1006.20 1006.52 1006.88 1007.16 1007.40 1007.68 1007.92 1008.16 1008.36 1008.52 1008.68 1008.84 1009.00
Wind_Speed
18 16 15 14 13 12 11 10 9 8 9 9 10 10 10 10 10 10 10 10 10 10 10 11 11 12 14 18 19 20 20 21 21 20 19 19 18 18 17 16 15 14 14 14 14 14 14 14 12 9 8 9 11 12 12 11 12 15 17 18 16 16 17 19 17 19 20 20 17
19 18 16 14 12 10 9 9 8 8 8 8 9 10 11 10 10 10 11 11 10 10 10 10 12 14 16 19 20 20 20 20 21 20 19 19 19 18 17 16 16 15 15 15 15 13 12 13 11 9 8 9 11 13 13 12 12 14 16 18 15 14 14 16 17 19 21 19 16
17 17 15 14 12 10 8 7 7 8 10 10 10 10 10 10 10 10 10 10 11 11 10 10 12 14 17 18 18 18 19 19 20 20 19 18 18 18 17 16 16 16 15 14 14 13 13 14 12 9 8 9 11 13 14 14 13 13 14 17 13 11 11 12 14 16 16 12 13
15 15 14 13 12 10 8 6 8 11 12 11 11 11 10 10 9 9 10 11 11 11 11 10 11 13 15 16 17 17 17 18 19 19 18 17 18 19 18 17 17 17 16 15 15 15 15 15 12 10 9 10 12 13 13 12 13 12 12 14 12 11 12 11 12 12 11 9 11
11 11 11 9 10 9 9 9 11 13 13 11 10 10 10 9 9 9 10 10 10 11 11 12 11 11 12 14 17 17 18 18 18 17 17 17 18 18 18 19 18 17 16 15 15 16 16 17 12 10 10 10 10 11 12 12 13 13 12 11 12 12 12 12 11 10 10 11 11
8 8 8 7 10 11 11 12 14 14 13 11 11 11 11 10 9 10 10 10 11 12 13 12 11 11 12 14 16 17 17 17 16 16 16 17 17 17 18 18 18 16 15 15 16 17 17 17 12 11 10 10 9 10 12 13 13 13 12 11 13 13 13 14 12 12 13 15 15
8 8 9 10 12 12 13 13 13 13 12 11 12 13 13 11 11 12 12 11 11 11 11 10 10 11 12 14 15 16 16 16 16 16 16 15 15 16 16 17 17 17 16 16 16 17 17 17 12 11 10 9 8 10 12 14 14 13 13 12 11 11 13 16 13 13 15 20 20
9 10 10 11 12 13 13 14 13 12 11 11 12 14 14 13 13 13 12 11 11 10 9 9 11 12 13 13 14 14 15 16 15 16 15 14 15 15 16 16 17 17 18 17 17 16 16 14 11 10 10 10 9 11 14 16 16 15 13 11 10 9 10 11 12 13 16 23 22
8 9 11 12 12 12 13 13 13 12 12 12 12 13 13 13 12 12 11 10 9 9 9 9 11 13 14 14 14 14 14 14 14 14 13 13 14 15 15 15 16 17 17 17 17 17 16 12 10 10 10 10 11 12 15 19 18 16 14 11 9 9 10 10 13 15 17 21 21
8 9 11 12 12 12 12 12 12 12 12 12 12 12 11 10 10 10 9 8 8 8 9 10 12 13 14 14 14 13 13 12 12 12 12 13 14 15 16 15 16 17 16 16 15 15 15 11 10 11 12 12 14 15 17 18 18 17 14 10 11 13 14 14 16 18 19 18 19
10 10 10 10 12 12 11 12 11 11 11 11 11 11 10 9 9 9 8 7 8 9 11 11 12 13 13 13 13 13 12 11 11 12 13 14 16 16 17 15 16 16 16 16 14 12 11 9 11 14 15 15 16 16 17 18 18 18 16 13 15 16 18 19 20 20 19 18 19
10 9 9 8 10 11 11 11 10 9 9 9 9 9 9 9 9 9 8 8 10 10 10 11 12 13 13 12 12 12 13 13 13 13 14 16 17 17 17 16 15 15 16 16 13 11 9 10 13 16 19 18 15 14 16 19 19 19 19 18 18 19 21 22 22 20 18 18 17
8 8 8 8 9 10 10 9 8 7 7 7 7 7 7 7 8 8 8 9 10 9 9 10 11 12 12 12 12 12 12 13 14 14 15 16 16 16 16 15 15 15 15 14 13 11 9 11 15 18 19 19 15 14 15 19 20 20 21 20 21 21 22 23 23 21 19 18 17
6 7 7 7 7 7 7 7 6 6 6 6 6 5 5 5 6 7 7 8 8 8 8 9 9 10 11 12 12 12 13 14 15 16 16 15 15 16 16 15 15 14 14 13 13 12 11 13 15 17 18 19 16 16 17 19 20 21 21 21 22 22 21 22 22 21 20 19 18
5 5 5 5 5 5 6 6 5 5 5 6 5 5 5 5 6 6 7 8 8 8 9 9 9 9 11 12 12 13 14 15 16 16 16 15 15 15 15 14 14 14 13 13 12 12 12 14 15 16 16 17 17 18 18 19 20 20 21 21 21 21 20 20 20 20 19 20 19
4 4 4 4 4 5 5 5 4 4 4 5 5 5 5 6 7 8 8 9 9 9 9 10 10 10 11 11 13 14 15 15 16 16 16 15 15 15 15 15 14 14 14 14 13 12 12 13 14 14 15 16 18 19 20 20 20 20 20 19 19 19 19 19 19 19 20 20 19
3 3 3 3 4 4 5 5 4 3 4 4 5 6 7 8 8 9 9 10 10 10 10 12 11 10 10 11 12 13 14 14 15 15 15 15 15 15 15 15 14 14 15 15 14 13 13 13 13 13 14 16 18 20 21 21 20 19 19 18 17 17 18 18 19 19 20 20 20
2 2 2 3 4 5 5 5 4 4 4 6 6 7 8 9 9 9 9 10 10 10 11 12 11 11 11 12 13 13 13 13 14 14 14 14 15 15 15 15 15 14 15 14 15 15 15 15 14 14 15 16 18 19 20 20 19 18 18 18 17 17 18 19 19 19 18 19 19
3 3 3 4 4 5 5 4 4 5 6 7 8 8 9 9 9 9 8 9 10 10 11 11 12 12 12 13 13 12 11 12 13 13 13 14 14 14 15 15 15 15 15 14 15 15 16 17 16 15 15 16 17 17 18 18 17 18 18 19 19 18 18 19 19 18 17 17 17
3 4 4 5 5 5 5 4 5 6 7 8 8 9 9 10 9 9 9 9 9 10 11 12 12 12 12 13 13 12 11 10 12 12 13 13 13 14 15 15 15 16 16 14 14 15 16 17 17 16 16 16 16 16 17 17 17 18 18 18 18 18 18 17 17 16 16 16 16
2 2 3 3 4 4 4 4 5 6 7 8 9 10 10 9 9 9 9 9 10 11 12 13 13 13 13 13 13 12 11 9 10 11 12 12 13 14 15 14 16 17 17 15 14 14 16 17 17 16 16 17 16 16 16 16 17 18 18 16 16 17 17 16 16 15 15 15 15
1 1 2 2 3 2 2 2 3 5 6 8 9 9 9 10 10 10 10 10 11 12 13 14 15 14 14 13 13 13 11 9 9 10 11 12 13 14 14 15 17 17 17 17 15 15 16 16 16 16 16 16 16 16 16 16 17 17 17 16 16 16 16 16 15 15 15 15 14
1 1 2 2 2 1 0 1 3 5 7 8 8 9 9 10 11 11 11 11 11 12 13 15 15 15 14 13 13 13 11 9 10 10 11 12 13 15 16 16 18 18 17 16 15 15 16 15 15 15 15 15 16 16 17 17 16 16 16 16 16 16 15 15 14 14 14 14 14
0 1 1 2 3 3 1 1 3 5 6 7 7 8 10 11 12 12 13 13 12 13 14 14 14 14 14 14 13 12 11 10 11 12 13 14 15 17 18 18 18 17 16 14 14 14 13 12 13 13 13 14 14 15 16 15 15 15 15 15 15 15 14 14 14 14 14 14 14
4 5 5 5 5 4 3 2 1 2 4 5 6 8 10 12 13 13 13 13 13 14 15 15 14 14 13 13 12 11 11 11 12 13 15 15 16 17 18 17 16 14 13 12 13 13 12 10 11 11 12 12 13 14 14 14 14 14 13 14 14 14 13 14 13 13 13 14 13
7 7 7 7 7 6 5 4 3 3 3 4 5 7 10 12 13 13 13 13 13 15 16 16 15 14 12 12 11 11 11 11 13 15 16 17 18 17 16 14 13 11 11 11 13 14 14 12 11 11 12 12 12 12 12 12 12 13 13 13 12 12 13 13 13 13 13 12 12
8 8 8 8 8 8 7 7 6 6 6 6 6 5 7 8 8 9 10 11 12 14 15 14 14 12 10 9 9 10 10 10 12 13 14 15 16 15 14 11 9 8 9 11 14 14 14 13 11 11 12 13 12 11 11 11 12 13 12 12 11 11 12 12 13 13 13 12 12
8 8 8 9 9 9 9 9 9 9 8 8 7 4 2 5 6 6 6 7 8 8 9 8 7 6 5 6 7 7 7 7 8 8 10 11 12 12 11 9 8 8 10 13 15 14 13 12 10 9 9 11 11 11 11 10 11 11 10 10 10 11 11 11 11 12 12 12 12
9 8 8 9 9 10 11 11 11 10 10 9 8 7 8 12 13 13 13 13 12 11 9 8 7 7 8 10 10 10 11 11 11 12 12 14 14 13 11 10 9 10 13 16 16 16 15 15 14 12 10 8 8 8 7 7 7 7 6 6 7 8 10 10 10 10 11 11 11
9 8 8 9 10 12 13 13 12 11 11 9 9 9 11 14 16 16 16 17 16 14 11 10 11 12 12 12 11 11 12 12 13 13 15 16 16 15 13 12 11 11 14 17 18 19 19 19 18 17 16 13 11 9 8 8 8 8 7 6 6 6 7 7 7 7 8 8 9
10 10 10 11 13 14 14 14 13 12 11 10 9 11 13 16 17 17 17 16 15 14 14 15 16 16 15 13 12 13 13 13 14 14 16 17 17 16 15 15 13 12 13 17 20 21 21 20 20 19 18 15 12 11 10 10 10 9 9 8 9 9 9 8 8 7 5 4 5
12 12 12 14 15 15 15 14 12 11 11 10 10 12 14 16 16 16 16 16 16 16 17 18 18 17 15 14 14 14 15 15 15 15 16 17 17 17 16 15 14 12 12 17 20 22 22 21 21 20 19 16 14 13 12 12 11 11 11 11 12 12 11 10 9 9 9 7 5
14 14 14 14 15 15 14 12 11 10 10 10 12 13 15 16 16 16 16 16 17 18 18 18 17 16 15 14 15 15 16 16 17 17 17 17 18 18 17 15 13 13 13 16 20 21 22 22 21 21 19 17 14 13 13 12 11 11 11 12 13 13 13 12 10 10 9 9 7
15 14 14 14 14 13 12 11 10 10 10 12 13 14 15 16 17 17 17 16 16 17 17 16 16 15 15 14 14 15 15 15 17 18 18 18 19 19 18 15 12 12 14 16 18 20 21 22 21 21 19 16 14 13 14 14 12 12 12 13 13 13 13 13 12 11 10 10 8
14 14 13 13 12 12 11 10 10 11 12 14 15 16 17 17 17 17 17 16 17 17 17 16 15 15 15 15 15 15 16 17 18 18 18 18 19 20 19 17 14 15 16 17 18 19 20 20 20 20 18 15 13 13 14 15 14 14 14 14 14 14 14 13 13 12 11 10 9
14 13 13 12 12 11 11 11 12 13 15 16 16 17 17 17 17 16 16 17 18 18 17 16 16 17 17 16 16 16 16 18 18 18 18 18 19 19 19 18 16 17 18 18 18 17 17 17 18 18 17 14 12 12 12 13 13 14 15 15 14 14 14 13 13 12 12 11 10
14 13 13 12 12 12 13 13 15 16 16 16 17 17 17 17 17 16 15 16 18 18 18 17 17 17 17 17 16 16 17 17 18 18 18 17 18 18 19 18 17 18 19 19 18 17 16 15 15 15 15 13 12 12 12 11 11 12 13 14 14 13 13 12 12 12 12 12 11
14 13 13 13 13 14 14 15 16 17 17 16 16 16 16 16 16 15 15 15 17 18 18 18 18 17 17 17 17 18 18 18 18 18 18 17 17 18 18 19 18 17 18 20 19 18 16 15 14 14 13 13 12 12 11 10 10 11 11 11 12 12 11 10 10 11 12 14 15
14 14 13 14 14 15 16 16 17 17 16 16 16 16 16 16 15 14 14 15 16 17 17 18 18 17 16 17 17 18 19 19 19 18 18 18 17 18 19 19 18 17 18 20 19 18 17 16 14 13 12 12 12 11 10 10 11 11 11 10 10 11 11 10 10 10 12 15 18
14 14 14 14 15 15 16 17 17 16 15 16 16 17 16 16 15 14 14 15 16 17 17 17 17 16 15 16 18 19 19 19 18 18 18 18 18 19 19 19 18 18 18 20 20 19 18 16 14 12 11 11 10 10 9 10 10 11 10 9 9 9 9 9 9 9 11 13 16
14 14 14 15 15 16 17 18 17 16 16 17 17 16 15 15 15 15 15 15 16 16 15 15 16 16 16 16 16 18 20 20 19 19 19 19 19 19 19 18 18 18 18 19 20 20 19 17 15 13 10 9 9 9 9 9 10 11 11 9 9 8 9 9 9 9 10 11 11
Wind_Direction
219 215 213 212 212 211 210 208 206 206 208 207 204 202 201 201 200 199 199 199 198 196 194 193 196 197 197 195 195 196 197 199 200 201 202 204 204 203 202 202 200 200 201 202 203 204 203 203 205 205 205 204 206 205 202 197 195 195 195 196 198 198 197 197 191 188 187 185 186
210 208 207 207 206 205 204 202 201 204 208 211 208 204 201 200 199 199 199 199 199 197 195 194 196 198 198 196 196 197 198 199 199 199 200 202 203 202 201 202 201 201 201 201 203 204 203 200 201 202 204 204 206 204 200 195 194 193 192 191 192 191 191 192 188 186 184 182 184
199 200 202 201 200 198 197 196 199 205 210 213 210 205 202 200 199 199 198 198 198 198 197 196 196 197 198 196 196 197 197 198 198 197 198 200 202 202 201 202 201 200 199 200 203 204 203 198 196 197 200 203 204 202 199 193 191 193 194 193 191 189 188 187 184 181 180 178 182
192 195 197 197 195 193 192 195 202 206 209 211 208 205 202 201 199 199 198 198 198 198 198 198 196 196 196 195 195 195 196 196 196 197 197 199 201 201 202 202 202 200 198 200 204 205 204 198 195 194 197 199 202 201 198 192 188 191 196 197 195 193 191 186 182 181 181 182 187
190 193 194 192 189 190 195 202 205 206 207 206 204 202 200 199 199 199 198 196 197 197 198 197 195 194 193 192 192 193 195 196 196 197 198 199 201 202 202 202 202 200 200 200 203 205 204 200 197 195 195 195 198 199 197 192 188 190 195 198 199 198 194 187 186 187 189 189 192
189 190 191 191 192 195 200 205 206 205 204 202 203 201 199 197 197 197 196 195 196 196 195 194 193 192 191 191 191 192 194 195 196 198 199 200 201 202 203 203 202 201 200 201 203 204 204 201 199 198 196 193 195 197 196 192 190 192 195 194 197 198 196 189 189 191 192 190 190
189 191 192 194 196 198 200 201 203 202 200 201 204 203 200 196 196 195 195 193 194 192 190 189 190 191 191 191 192 192 194 195 196 198 199 200 201 202 204 205 203 202 201 202 201 202 202 200 200 199 198 193 191 191 191 189 190 192 195 194 194 195 193 187 186 188 191 190 187
189 192 192 193 196 198 199 198 200 199 198 199 204 204 201 196 194 194 193 192 192 189 186 186 191 192 192 192 192 193 194 195 196 196 198 200 201 203 204 205 205 204 203 202 201 200 199 199 199 199 198 196 193 190 188 186 188 190 192 191 191 192 189 181 177 182 187 188 184
184 189 190 189 192 195 197 198 200 199 198 197 202 202 200 195 193 193 193 193 191 186 183 187 193 194 194 193 193 193 194 195 195 195 195 198 201 203 204 205 205 204 203 203 203 200 198 196 196 196 198 200 197 192 187 183 185 186 186 185 187 189 188 181 176 179 182 182 179
174 184 187 184 185 190 196 199 202 201 198 195 197 197 196 193 193 194 194 192 189 186 186 187 192 194 195 193 193 193 194 195 194 193 194 197 200 202 203 204 204 203 203 203 202 200 198 197 196 194 195 200 198 192 186 182 183 183 182 181 186 187 187 183 180 180 179 177 175
171 179 181 180 180 185 193 199 199 198 196 193 192 192 192 192 196 197 196 190 191 192 191 188 191 194 196 195 193 192 192 193 195 195 196 199 201 202 202 202 202 202 201 201 199 197 197 201 200 197 194 197 196 190 183 180 181 181 181 183 186 187 185 183 181 179 176 174 173
170 171 173 178 179 184 191 196 192 191 191 190 187 189 192 195 199 199 198 194 195 197 196 191 191 194 198 199 194 192 192 193 194 196 198 200 201 201 201 200 200 200 200 199 195 193 196 205 206 200 196 193 192 185 178 177 178 180 181 184 187 186 185 183 180 177 173 171 170
165 163 167 177 179 184 189 191 185 184 186 187 184 188 196 202 203 203 202 201 199 199 200 198 194 196 199 201 196 192 190 192 194 196 198 198 198 198 198 199 199 198 198 196 191 190 196 206 206 201 195 191 186 178 174 174 176 178 181 184 185 184 182 180 178 175 171 169 168
156 156 161 171 175 181 188 191 185 184 184 185 184 190 200 211 211 211 212 211 204 202 203 207 201 200 201 202 197 192 190 191 194 197 198 196 194 194 196 198 197 196 194 192 188 190 197 206 204 199 193 187 180 174 171 172 174 177 179 181 181 179 177 174 174 171 169 167 168
137 142 152 163 170 179 189 195 193 189 186 184 186 191 200 214 214 214 216 219 212 207 206 210 206 206 206 205 199 194 191 192 194 195 196 194 192 192 193 195 195 193 191 188 185 189 197 204 199 193 187 182 175 171 170 171 174 176 177 178 176 174 172 170 170 169 168 167 168
117 128 142 157 173 187 195 199 196 194 192 191 191 194 202 215 211 208 208 213 214 211 208 209 207 206 207 209 204 198 194 193 193 194 195 194 192 192 193 194 193 191 188 184 181 185 194 202 194 186 180 177 172 169 169 172 174 175 175 175 173 171 170 170 169 169 169 168 169
107 121 138 161 186 198 204 206 198 196 201 208 207 204 205 215 213 205 201 205 210 210 207 207 207 204 203 208 210 207 201 195 194 194 194 194 192 192 192 194 193 189 184 180 176 180 190 200 192 182 176 173 169 167 167 171 173 174 174 173 172 171 172 173 173 172 171 170 170
132 142 157 186 205 207 207 209 201 202 210 220 220 216 212 214 216 209 201 201 209 211 210 207 209 207 204 205 210 210 206 198 195 195 195 195 194 193 193 194 192 187 180 174 171 176 186 197 190 181 174 173 168 167 167 170 171 172 173 174 174 174 174 176 176 174 171 169 169
159 166 176 195 212 212 207 203 202 208 216 223 223 221 220 220 219 216 210 205 211 216 217 214 213 211 208 205 207 207 205 200 197 196 197 197 196 196 194 193 191 184 177 169 168 174 183 191 186 179 174 174 171 169 169 169 168 169 171 173 174 174 174 174 174 172 169 167 167
170 175 182 191 205 210 209 205 208 214 220 225 224 222 222 226 225 224 222 218 218 221 224 224 219 216 213 209 206 204 202 200 198 198 198 199 199 198 195 191 186 180 174 167 166 172 180 185 181 176 173 174 172 171 170 169 168 168 169 170 171 170 170 170 169 167 165 164 165
164 173 184 189 199 207 214 216 222 226 228 230 228 226 225 228 230 231 231 230 227 226 227 228 224 220 216 212 207 203 200 199 198 199 200 201 199 197 193 186 181 176 172 167 167 172 177 180 177 174 171 172 172 172 171 170 169 169 168 167 166 166 166 166 165 164 163 163 165
137 158 189 205 203 208 223 241 251 250 246 240 236 234 232 232 234 235 235 236 234 231 227 226 223 220 216 212 206 201 197 194 196 198 199 199 196 192 187 181 176 170 165 163 165 171 176 178 174 171 169 170 172 172 172 171 170 169 167 164 162 161 162 162 162 163 163 163 165
150 177 196 206 182 156 156 265 262 258 255 252 249 246 243 239 238 236 235 233 232 229 225 223 220 215 211 207 202 196 192 190 194 197 198 196 190 186 183 179 173 165 158 156 162 169 175 176 172 168 167 168 171 172 172 170 168 166 164 160 158 158 159 159 161 162 163 165 167
85 123 134 123 99 96 99 252 265 265 264 262 258 254 249 243 238 234 231 228 226 223 219 215 210 206 203 201 194 189 185 188 192 194 194 191 185 181 178 176 169 160 152 150 158 166 172 171 168 167 166 166 168 170 170 167 164 161 158 156 156 156 157 159 161 163 164 166 168
68 75 79 83 82 80 73 52 336 297 284 276 265 255 247 240 233 227 223 220 219 217 212 205 197 194 193 191 185 180 179 184 188 189 186 181 174 169 167 165 160 153 146 143 152 159 164 163 162 164 167 166 165 166 166 162 157 154 152 152 154 155 156 158 161 163 165 166 168
71 74 76 77 75 69 61 49 29 2 333 311 284 260 244 233 226 219 215 211 211 208 203 193 185 182 180 177 173 172 175 181 183 181 176 168 159 154 151 150 149 144 139 137 147 152 156 157 155 159 164 164 160 159 157 153 150 148 148 149 151 153 155 157 159 162 164 165 165
66 69 70 70 68 62 55 46 32 17 1 343 316 278 243 220 211 206 204 202 200 198 193 186 182 179 174 165 161 165 171 175 171 166 159 151 144 139 135 132 130 127 126 129 135 139 142 146 144 148 153 155 153 151 148 146 146 145 145 146 148 150 152 155 157 159 161 162 161
53 60 66 70 67 61 54 45 35 23 10 357 347 350 73 115 117 124 137 151 158 162 163 162 163 161 148 123 117 120 126 126 124 119 114 109 108 109 109 107 104 105 109 114 115 115 115 115 117 124 135 144 145 143 140 139 141 142 142 143 148 151 153 154 155 158 160 160 158
44 53 62 68 66 60 53 45 37 27 17 9 14 40 72 88 90 91 91 92 93 94 96 99 96 90 87 86 88 87 85 82 80 79 78 79 78 78 79 82 87 93 97 99 98 95 90 86 83 81 84 96 113 116 113 109 110 110 112 120 138 149 154 156 158 160 161 159 158
41 49 58 65 64 60 54 47 39 32 26 22 33 55 74 81 82 82 82 82 83 84 86 87 85 83 82 83 84 81 77 74 74 75 75 75 72 70 67 66 69 78 86 90 89 86 82 79 76 73 71 72 80 84 84 83 82 79 74 71 81 98 113 124 134 144 152 158 162
39 46 53 59 59 57 54 48 42 37 33 34 46 62 74 78 80 81 82 83 84 84 82 81 80 79 79 81 81 81 79 78 76 75 75 75 72 69 65 60 58 63 75 85 87 86 83 80 78 76 74 74 78 80 81 80 78 74 69 63 62 63 67 71 71 72 79 107 143
36 40 45 52 55 55 53 50 46 42 40 41 51 62 71 77 79 80 81 81 80 78 76 74 75 75 76 77 78 79 80 79 77 76 76 77 76 73 68 61 54 53 63 78 85 86 85 83 81 80 78 77 79 80 79 77 74 71 67 63 59 57 56 55 53 49 47 49 65
34 37 42 48 53 55 55 54 52 51 50 51 56 62 68 73 74 75 74 74 74 73 72 72 73 74 75 76 78 79 80 80 78 77 77 78 78 75 71 64 55 49 53 69 82 86 87 86 84 83 81 80 82 82 80 78 75 71 66 62 58 56 55 54 52 48 45 43 46
34 37 41 47 52 56 58 59 59 60 60 59 60 63 67 70 72 73 73 74 74 73 72 72 73 72 72 72 75 77 78 79 78 78 78 78 78 76 72 66 57 47 48 61 75 83 86 87 86 85 83 81 82 82 81 79 75 72 68 65 60 57 54 51 49 46 44 44 46
35 38 42 47 52 55 59 61 61 61 60 59 59 61 63 67 69 71 74 75 75 74 72 71 71 70 69 67 69 72 75 77 77 77 77 78 77 76 73 69 59 49 46 55 65 74 80 85 86 86 85 83 83 83 82 80 77 74 71 68 63 59 55 51 47 44 41 41 45
36 39 43 48 51 54 56 57 57 56 55 55 56 58 60 62 64 67 71 73 74 73 72 70 69 68 67 66 65 66 69 73 75 75 75 75 77 77 75 70 60 49 44 47 55 62 70 78 83 86 87 87 86 85 83 81 80 77 75 72 68 63 60 56 51 46 42 39 39
36 39 43 48 51 52 53 53 54 53 52 52 53 55 58 60 61 62 65 70 73 73 71 68 67 67 67 67 65 64 64 67 70 72 71 71 75 76 75 70 59 49 43 42 46 52 58 66 76 83 87 90 91 89 88 86 85 82 79 76 72 68 65 62 57 51 46 41 39
36 38 43 49 52 52 53 53 54 54 54 53 54 56 57 60 60 59 60 66 72 73 72 70 68 68 68 69 68 65 63 62 66 68 70 69 70 72 72 69 60 50 43 40 43 46 50 56 66 76 86 94 94 94 92 90 88 85 83 79 76 71 67 66 61 56 50 46 43
37 39 43 49 52 54 55 55 55 56 56 57 57 58 58 60 60 60 61 64 69 72 73 72 70 70 70 72 71 69 65 63 64 66 68 68 66 67 68 68 61 52 45 40 41 43 46 50 58 69 82 92 95 95 95 94 91 89 86 84 80 75 71 68 65 61 56 51 48
39 41 45 49 53 55 57 57 57 57 58 59 60 60 60 61 63 63 63 65 68 70 71 72 71 70 70 71 72 71 68 65 63 63 65 65 63 63 63 65 61 54 47 42 41 42 43 44 49 59 74 90 93 95 96 96 93 91 88 86 84 80 76 71 68 65 61 56 51
42 43 46 50 52 55 57 58 58 58 58 60 60 61 62 63 64 65 66 67 68 69 71 72 71 71 70 69 71 71 70 66 62 61 61 62 60 60 59 61 59 55 49 44 42 41 42 41 42 48 60 83 90 93 95 95 94 92 90 88 86 85 82 77 72 68 64 60 56